Wind_Speed
9 9 9 9 9 9 9 10 10 9 9 9 9 9 9 9 9 9 10 9 9 8 8 8 7 7 7 7 8 8 8 9 8 7 8 8 8 9 9 10 10 10 10
9 9 9 9 9 9 9 9 9 9 9 9 9 9 9 9 9 9 8 8 8 9 9 8 8 8 8 8 9 9 9 9 9 9 9 9 9 9 9 10 10 10 10
8 9 10 9 9 9 10 10 10 10 10 10 10 9 9 9 8 8 9 8 8 8 8 8 9 9 9 9 9 9 10 10 10 10 10 10 9 9 9 10 10 10 11
8 9 9 10 10 10 10 10 10 11 11 10 9 9 9 9 9 9 9 9 9 8 9 9 9 9 9 9 9 10 10 10 11 11 11 11 10 10 10 10 11 11 11
9 10 10 10 10 10 10 11 11 11 10 10 10 9 9 10 9 9 9 9 9 9 9 10 10 10 10 10 10 10 11 11 12 12 12 11 11 11 11 11 11 11 11
9 10 10 10 10 10 10 11 11 11 10 10 10 10 9 10 10 10 10 10 10 9 9 10 10 10 10 10 10 10 11 12 12 12 12 12 12 12 12 12 12 12 12
9 10 10 10 10 10 10 10 10 11 11 11 10 10 10 10 10 10 10 10 10 10 10 10 11 11 11 11 11 12 12 12 12 11 12 12 13 13 14 13 13 13 13
9 10 10 10 10 10 10 10 11 11 11 11 12 11 11 11 10 10 10 10 10 11 11 11 11 12 12 13 13 13 13 13 13 13 13 13 14 14 14 14 14 14 14
10 10 10 10 10 10 11 11 11 12 12 12 12 12 12 11 11 11 11 12 11 12 11 12 12 12 13 13 13 13 14 14 14 14 14 14 15 15 15 15 15 15 15
11 10 10 10 11 11 11 11 12 12 12 13 13 13 12 12 12 12 13 12 12 12 12 12 12 13 13 13 13 14 14 14 14 14 15 15 15 15 15 15 16 16 17
10 10 10 11 11 11 11 12 12 12 13 13 13 13 13 13 12 13 13 13 13 13 13 13 13 13 13 14 14 14 13 13 13 14 14 15 15 16 16 16 16 17 18
11 11 11 11 12 12 12 12 12 13 13 14 14 14 14 13 13 13 14 14 13 13 13 13 14 14 14 14 13 14 14 14 14 14 14 15 16 17 17 17 17 17 18
12 12 12 12 12 13 13 12 13 13 13 14 14 14 14 15 14 14 14 14 14 14 14 14 15 15 14 14 14 15 15 15 15 15 16 16 16 17 17 17 17 18 18
13 12 12 13 13 14 14 14 14 13 14 14 14 15 15 16 15 15 15 15 15 15 15 15 16 15 15 15 15 15 16 16 16 17 17 17 17 17 17 18 19 19 20
14 13 13 13 13 14 14 14 15 14 14 14 14 15 16 17 17 17 17 16 17 17 17 17 16 16 16 16 16 16 16 17 17 18 18 18 18 18 18 19 20 20 21
15 15 15 15 15 15 15 15 15 16 16 16 16 17 17 17 18 18 18 17 17 17 17 18 17 17 17 18 18 18 19 19 19 20 19 19 19 19 20 21 21 22 23
15 16 16 17 17 17 16 16 17 17 18 18 18 18 18 18 17 18 18 18 18 19 19 19 19 20 20 20 20 20 21 21 21 21 20 21 21 22 22 23 23 24 25
16 16 17 18 18 18 18 18 18 18 18 19 19 19 19 19 19 19 19 19 19 19 20 20 21 21 21 21 22 22 22 22 22 23 22 22 23 24 25 25 26 26 27
17 17 18 18 19 19 19 20 20 20 20 20 20 19 20 20 20 20 20 21 21 21 21 21 22 22 22 23 23 23 23 23 23 23 23 24 25 25 26 27 27 27 28
18 18 18 19 20 20 21 21 21 21 21 21 21 21 20 21 20 21 21 22 22 22 22 22 22 23 23 23 23 23 24 24 24 24 24 25 26 27 27 28 27 28 28
20 20 20 21 21 21 21 21 21 21 21 21 21 21 21 21 21 22 22 22 23 23 22 23 23 24 24 24 24 24 25 25 25 26 26 26 27 28 28 28 28 28 28
22 22 22 22 22 22 21 22 22 22 22 22 22 21 21 22 22 22 23 23 23 23 23 24 24 24 24 24 25 25 25 25 26 26 27 27 27 27 27 28 28 28 29
23 23 23 22 22 22 22 22 23 23 23 23 23 22 22 22 23 23 23 24 24 24 24 23 23 24 24 24 25 25 25 25 26 27 27 27 26 27 27 27 28 29 29
23 24 24 24 23 23 23 23 23 24 24 23 23 23 23 23 24 24 24 24 25 24 24 24 24 25 25 25 25 25 26 26 26 26 27 26 26 27 28 29 29 30 30
24 24 24 24 25 25 25 25 24 24 24 24 24 24 25 25 25 25 25 25 25 25 25 25 25 25 25 26 26 26 27 27 27 27 27 28 28 28 29 30 30 31 31
25 25 25 25 25 25 26 26 26 26 25 25 24 25 25 25 26 26 27 27 26 25 25 25 25 25 26 27 27 27 27 27 28 28 28 28 29 29 30 31 31 31 31
Wind_Direction
260 260 260 261 263 264 263 262 266 267 272 275 268 265 267 269 273 275 274 275 272 271 272 270 269 266 266 267 269 274 277 277 276 280 287 290 288 282 279 277 274 273 272
261 259 262 266 265 265 263 265 268 271 271 271 271 272 271 271 274 278 278 276 273 271 270 269 269 267 267 269 269 272 277 278 279 281 287 291 292 288 284 282 279 280 279
263 267 267 269 269 265 264 265 268 271 270 270 271 272 274 276 277 278 276 275 273 271 270 267 267 266 267 269 270 272 275 277 279 280 283 287 288 286 284 283 281 281 281
267 269 268 268 270 268 269 271 271 271 272 269 268 268 273 275 276 277 275 274 273 271 268 265 268 268 268 270 272 274 276 279 281 283 283 283 282 281 281 281 283 281 281
268 269 268 269 268 268 268 270 271 271 272 272 267 268 273 276 277 277 276 274 270 269 269 267 266 265 265 268 273 276 276 279 281 280 280 279 278 277 278 281 282 284 284
270 272 272 272 269 266 266 266 268 267 268 271 271 269 272 274 275 275 275 273 269 268 267 269 267 266 265 268 271 274 277 278 281 279 276 276 277 276 278 280 281 281 283
275 276 277 275 270 268 265 264 266 266 267 269 269 269 272 273 274 273 272 271 268 265 266 268 268 267 267 269 271 272 275 278 281 280 281 280 279 280 280 280 280 282 284
277 278 277 274 272 269 269 268 266 267 268 269 267 267 270 270 270 269 270 271 269 267 269 270 269 270 270 272 273 273 273 277 281 283 283 280 278 279 280 280 280 282 283
278 276 276 272 272 272 272 270 267 269 268 267 266 267 269 268 268 267 269 270 269 270 271 271 271 273 274 274 275 277 278 278 280 280 280 280 279 279 279 282 283 284 283
278 275 275 274 272 272 271 269 270 270 270 269 267 267 269 270 270 269 270 270 270 270 270 271 273 275 275 275 277 279 280 279 280 280 279 279 280 282 282 283 284 285 285
277 274 274 275 273 272 273 272 270 271 272 271 269 266 267 269 270 270 271 271 270 269 269 271 275 277 277 277 277 277 277 279 282 280 280 281 281 283 283 282 284 286 286
277 273 271 272 271 272 275 275 274 275 272 271 270 265 267 268 269 269 269 268 269 271 272 272 274 277 278 278 278 280 280 282 283 285 285 283 282 283 283 283 284 285 286
274 272 272 271 271 273 275 276 277 278 276 275 272 268 267 268 269 269 269 270 271 273 274 273 275 276 277 278 279 279 280 281 282 283 286 285 286 285 284 284 284 284 285
271 272 274 272 271 273 274 276 278 279 278 277 274 271 269 268 268 268 269 272 272 273 274 274 275 275 277 278 279 280 280 281 282 282 283 283 283 282 283 284 284 284 286
270 270 272 274 273 273 273 274 277 278 278 277 274 272 271 268 267 268 270 271 272 272 274 274 274 275 277 279 280 280 281 282 283 283 282 281 281 281 283 285 286 287 288
271 270 269 272 273 271 271 273 275 275 277 276 274 273 272 271 269 269 269 271 274 274 275 275 275 278 279 280 280 280 281 282 283 282 281 281 281 282 284 285 287 289 290
273 270 269 270 273 273 272 274 275 275 274 274 275 273 273 271 269 269 270 272 274 277 277 276 276 277 278 278 278 279 280 282 282 282 281 282 282 282 284 286 288 290 292
272 272 270 270 272 272 272 273 276 276 275 276 277 275 273 272 270 270 272 273 275 278 278 277 278 278 278 278 279 279 280 281 282 282 283 284 284 284 286 287 288 289 291
273 273 274 272 272 272 272 275 277 277 276 276 276 275 273 271 271 272 273 274 276 279 280 279 278 278 279 279 279 280 281 282 280 281 283 284 283 284 285 287 288 289 289
274 273 274 273 273 274 273 276 278 278 276 273 272 272 272 272 272 274 275 276 277 277 279 280 279 280 280 280 280 280 281 281 281 282 283 285 286 286 287 288 288 289 289
273 274 275 275 275 275 275 275 277 278 276 273 271 270 272 273 274 275 276 277 277 277 279 281 281 281 281 281 281 281 283 282 282 284 286 286 287 288 289 289 290 290 290
272 273 275 277 276 276 276 275 276 277 276 274 271 272 272 273 275 276 278 279 279 279 279 282 282 281 281 282 283 283 284 284 284 285 286 287 287 288 289 290 290 291 291
270 272 274 276 276 276 277 279 276 276 276 275 273 272 273 274 276 278 279 279 280 281 280 282 281 281 281 283 284 284 284 285 284 285 286 286 287 288 289 290 291 293 293
271 273 273 274 275 275 276 278 278 276 276 276 275 274 274 275 276 277 278 279 280 281 279 281 281 281 281 282 282 282 283 283 283 284 286 287 288 288 290 292 294 296 295
273 274 274 273 273 274 276 275 275 275 277 277 277 276 276 276 277 278 279 280 280 280 278 279 281 281 281 281 282 283 283 283 283 284 284 286 288 289 290 291 293 295 296
273 274 274 273 273 274 276 276 275 276 276 277 276 276 276 277 278 278 279 280 280 279 279 278 279 280 281 281 283 284 285 285 286 286 285 286 289 290 291 293 294 296 296
Height
5867 5866 5867 5867 5867 5867 5867 5868 5868 5868 5868 5868 5867 5868 5868 5868 5867 5867 5867 5867 5867 5867 5866 5866 5865 5865 5865 5865 5864 5864 5863 5863 5862 5862 5861 5860 5859 5858 5858 5857 5857 5856 5855
5865 5865 5865 5865 5865 5865 5865 5866 5866 5866 5866 5866 5866 5866 5866 5866 5865 5865 5865 5865 5864 5864 5864 5864 5863 5863 5863 5862 5862 5862 5861 5861 5860 5860 5859 5858 5858 5856 5855 5855 5854 5853 5853
5863 5863 5863 5863 5863 5863 5863 5863 5864 5864 5864 5864 5864 5864 5864 5863 5863 5863 5863 5863 5862 5862 5862 5862 5861 5861 5861 5860 5860 5859 5859 5858 5858 5857 5857 5856 5855 5854 5854 5852 5852 5851 5850
5861 5861 5861 5861 5861 5861 5861 5861 5862 5862 5862 5861 5862 5862 5862 5861 5861 5861 5861 5860 5860 5860 5859 5859 5859 5859 5858 5858 5857 5857 5856 5856 5855 5854 5854 5853 5852 5852 5851 5850 5849 5848 5848
5859 5859 5859 5859 5859 5859 5859 5859 5859 5859 5859 5859 5859 5859 5859 5859 5859 5859 5858 5858 5858 5857 5857 5857 5856 5856 5856 5855 5855 5854 5854 5853 5853 5852 5851 5850 5850 5849 5848 5848 5847 5846 5845
5857 5856 5856 5856 5856 5856 5857 5857 5857 5857 5857 5857 5857 5857 5857 5857 5856 5856 5856 5855 5855 5855 5855 5854 5854 5854 5853 5853 5852 5852 5851 5850 5850 5849 5848 5847 5847 5846 5845 5844 5844 5843 5842
5854 5854 5854 5854 5854 5854 5854 5854 5854 5854 5854 5854 5854 5854 5854 5854 5854 5853 5853 5853 5853 5852 5852 5851 5851 5851 5850 5850 5850 5849 5848 5847 5847 5845 5845 5844 5843 5843 5842 5841 5840 5839 5838
5851 5851 5851 5851 5851 5851 5851 5851 5851 5851 5851 5851 5851 5851 5851 5851 5851 5851 5850 5850 5850 5849 5849 5849 5848 5848 5847 5847 5846 5845 5845 5844 5843 5842 5841 5840 5840 5839 5838 5837 5836 5836 5835
5849 5848 5848 5848 5848 5848 5848 5848 5848 5848 5848 5848 5848 5848 5848 5848 5848 5848 5847 5847 5847 5846 5846 5846 5845 5844 5844 5843 5843 5842 5841 5840 5839 5839 5838 5837 5836 5835 5834 5833 5832 5832 5831
5846 5846 5845 5845 5845 5845 5845 5845 5845 5845 5845 5845 5845 5845 5845 5845 5844 5844 5844 5844 5843 5843 5843 5842 5842 5841 5840 5839 5839 5838 5837 5836 5835 5834 5834 5833 5832 5831 5830 5829 5828 5827 5826
5843 5843 5842 5842 5842 5842 5842 5842 5842 5841 5841 5841 5841 5841 5841 5841 5841 5841 5840 5840 5840 5839 5839 5838 5838 5837 5836 5836 5835 5834 5833 5832 5831 5830 5829 5828 5827 5826 5825 5824 5823 5822 5820
5840 5840 5840 5839 5839 5839 5839 5838 5838 5838 5838 5837 5837 5837 5837 5837 5837 5837 5837 5836 5836 5836 5835 5835 5834 5833 5832 5832 5831 5830 5829 5828 5827 5826 5825 5824 5822 5821 5820 5819 5818 5817 5815
5837 5836 5836 5836 5836 5836 5835 5835 5835 5834 5834 5834 5834 5833 5833 5834 5834 5833 5833 5833 5832 5832 5831 5831 5830 5829 5828 5828 5827 5826 5825 5824 5823 5821 5820 5819 5818 5816 5815 5814 5812 5811 5810
5833 5833 5833 5832 5832 5832 5832 5831 5831 5831 5830 5830 5830 5830 5829 5829 5829 5829 5829 5829 5828 5828 5827 5826 5825 5824 5824 5823 5822 5821 5820 5819 5818 5816 5815 5814 5813 5812 5810 5809 5807 5806 5804
5829 5829 5829 5829 5828 5828 5828 5827 5827 5827 5826 5826 5826 5825 5825 5825 5825 5825 5825 5824 5824 5823 5822 5821 5820 5820 5819 5818 5817 5816 5815 5814 5812 5811 5810 5809 5807 5806 5805 5803 5802 5800 5798
5825 5825 5824 5824 5824 5824 5824 5823 5823 5823 5822 5821 5821 5821 5820 5820 5820 5820 5820 5819 5818 5818 5817 5816 5815 5814 5814 5813 5812 5811 5809 5808 5807 5805 5804 5803 5801 5800 5799 5797 5795 5794 5791
5821 5820 5820 5820 5819 5819 5819 5818 5818 5817 5817 5816 5816 5815 5815 5815 5815 5814 5814 5814 5813 5812 5811 5810 5810 5809 5808 5807 5806 5805 5803 5802 5800 5799 5798 5796 5795 5794 5792 5790 5788 5786 5784
5815 5815 5815 5814 5814 5813 5813 5813 5812 5812 5811 5811 5810 5810 5810 5809 5809 5809 5808 5808 5807 5806 5805 5804 5803 5802 5801 5800 5799 5798 5797 5795 5794 5792 5791 5789 5788 5786 5784 5782 5780 5778 5775
5810 5809 5809 5809 5808 5808 5807 5807 5806 5805 5805 5804 5804 5803 5803 5803 5803 5802 5802 5801 5801 5800 5799 5798 5797 5796 5795 5793 5792 5790 5789 5788 5786 5785 5783 5781 5780 5778 5776 5774 5772 5769 5767
5804 5804 5803 5803 5802 5801 5801 5800 5799 5798 5797 5797 5796 5796 5796 5796 5796 5796 5795 5794 5794 5793 5792 5791 5790 5789 5787 5786 5785 5783 5782 5780 5779 5777 5775 5773 5771 5769 5767 5765 5763 5760 5758
5797 5797 5797 5796 5795 5794 5794 5793 5792 5791 5790 5789 5789 5789 5789 5789 5789 5788 5788 5787 5787 5786 5785 5783 5782 5781 5780 5778 5777 5775 5774 5772 5770 5769 5767 5765 5763 5760 5758 5756 5754 5751 5748
5791 5790 5790 5789 5788 5788 5787 5786 5785 5784 5783 5783 5782 5782 5782 5782 5782 5781 5780 5780 5779 5778 5777 5775 5774 5773 5772 5771 5769 5767 5766 5764 5762 5760 5758 5756 5754 5752 5749 5747 5744 5742 5739
5783 5783 5782 5781 5781 5781 5780 5779 5778 5777 5776 5776 5775 5775 5775 5775 5774 5774 5773 5772 5771 5770 5769 5768 5766 5765 5764 5763 5761 5760 5758 5756 5754 5752 5750 5747 5745 5743 5740 5738 5735 5733 5730
5775 5775 5774 5774 5774 5773 5773 5772 5771 5770 5769 5769 5768 5768 5768 5767 5767 5766 5765 5764 5763 5762 5761 5760 5759 5757 5756 5755 5753 5751 5749 5747 5745 5744 5741 5739 5737 5734 5732 5729 5726 5723 5720
5767 5767 5766 5766 5766 5765 5765 5764 5763 5763 5762 5761 5761 5761 5760 5760 5759 5758 5758 5757 5755 5754 5753 5752 5751 5749 5748 5746 5744 5742 5741 5739 5737 5735 5733 5731 5728 5725 5723 5720 5717 5714 5711
5758 5758 5758 5758 5758 5757 5757 5756 5755 5755 5754 5754 5753 5753 5752 5752 5751 5751 5750 5748 5747 5746 5745 5743 5742 5741 5739 5737 5735 5733 5732 5730 5728 5725 5723 5721 5719 5716 5713 5711 5708 5705 5701